Вернуться в каталог

STARLINK-34951

АктивенСвязьSSO
NORAD 65293·PAYLOAD·🇺🇸 United States

Запущен Aug 22, 2025 с Vandenberg Space Force Base

Loading…

Ближайшие Пролёты (ближайшие 24 часа)

TLE

СвежийSource: CelesTrak SupGP

Эпоха: Sep 15, 2026, 03:40 UTC

1 65293C 25184W   26258.15326389 -.00022775  00000+0 -70658-3 0  2586
2 65293  97.2828 306.2036 0000371  45.5668  14.2849 15.33470791    17

Отслеживайте STARLINK-34951 в реальном времени с AllMySat

Download on the App Store